| time (UTC) | temp F | wind direction | speed knots | gust knots | rain 1hr in | rain 24hr in | rain mn in | humidity % | barometer mb |
| 20260504141204 | 88 | 96 | 0.9 | 3.5 | 0.00 | 0.13 | 0.13 | 76 | 1010.0 |
| 20260504140904 | 88 | 91 | 0.9 | 3.5 | 0.00 | 0.13 | 0.13 | 76 | 1010.0 |
| 20260504140604 | 88 | 90 | 0.9 | 2.6 | 0.00 | 0.13 | 0.13 | 76 | 1010.0 |
| 20260504140304 | 88 | 98 | 0.9 | 2.6 | 0.00 | 0.13 | 0.13 | 76 | 1010.0 |
| 20260504130625 | 89 | 108 | 0.9 | 2.6 | 0.00 | 0.13 | 0.13 | 74 | 1010.0 |
| 20260504120304 | 89 | 101 | 1.7 | 5.2 | 0.00 | 0.13 | 0.13 | 74 | 1010.0 |
| 20260504110604 | 89 | 131 | 0.9 | 3.5 | 0.00 | 0.13 | 0.13 | 74 | 1010.0 |
| 20260504110304 | 90 | 123 | 0.9 | 3.5 | 0.00 | 0.13 | 0.13 | 74 | 1010.0 |
| 20260504100604 | 90 | 130 | 0.9 | 2.6 | 0.00 | 0.13 | 0.13 | 74 | 1010.0 |
| 20260504100325 | 90 | 124 | 0.9 | 3.5 | 0.00 | 0.13 | 0.13 | 74 | 1010.0 |
| 20260504081804 | 91 | 168 | 1.7 | 5.2 | 0.00 | 0.13 | 0.13 | 72 | 1010.0 |
| 20260504081526 | 91 | 150 | 1.7 | 5.2 | 0.00 | 0.13 | 0.13 | 72 | 1010.0 |
| 20260504081204 | 91 | 177 | 1.7 | 5.2 | 0.00 | 0.13 | 0.13 | 72 | 1010.0 |
| 20260504080904 | 91 | 154 | 1.7 | 5.2 | 0.00 | 0.13 | 0.13 | 72 | 1010.0 |
| 20260504080625 | 91 | 148 | 0.9 | 3.5 | 0.00 | 0.13 | 0.13 | 72 | 1010.0 |
| 20260504070304 | 89 | 128 | 0.9 | 3.5 | 0.00 | 0.13 | 0.13 | 74 | 1010.0 |
| 20260504050625 | 88 | 162 | 0.9 | 2.6 | 0.00 | 0.13 | 0.13 | 79 | 1010.0 |
| 20260504050304 | 88 | 158 | 0.9 | 2.6 | 0.00 | 0.13 | 0.13 | 79 | 1010.0 |
| 20260504050025 | 88 | 156 | 0.9 | 3.5 | 0.00 | 0.13 | 0.13 | 79 | 1010.0 |
| 20260504045725 | 88 | 145 | 0.9 | 3.5 | 0.00 | 0.13 | 0.13 | 79 | 1010.0 |
| 20260504045404 | 88 | 155 | 0.9 | 3.5 | 0.00 | 0.13 | 0.13 | 79 | 1010.0 |
| 20260504045104 | 88 | 139 | 0.9 | 3.5 | 0.00 | 0.13 | 0.13 | 79 | 1010.0 |
| 20260504044804 | 88 | 131 | 1.7 | 4.3 | 0.00 | 0.13 | 0.13 | 79 | 1010.0 |
| 20260504044525 | 88 | 131 | 1.7 | 4.3 | 0.00 | 0.13 | 0.13 | 79 | 1010.0 |
| 20260504044204 | 88 | 124 | 0.9 | 4.3 | 0.00 | 0.13 | 0.13 | 79 | 1010.0 |
| 20260504043904 | 88 | 141 | 0.9 | 4.3 | 0.00 | 0.13 | 0.13 | 80 | 1010.0 |
| 20260504043604 | 88 | 141 | 0.9 | 3.5 | 0.00 | 0.13 | 0.13 | 80 | 1010.0 |
| 20260504043304 | 88 | 149 | 0.9 | 3.5 | 0.00 | 0.13 | 0.13 | 80 | 1010.0 |
| 20260504043004 | 88 | 137 | 0.9 | 3.5 | 0.00 | 0.13 | 0.13 | 80 | 1010.0 |
| 20260504042704 | 87 | 134 | 0.9 | 3.5 | 0.00 | 0.13 | 0.13 | 80 | 1010.0 |
| 20260504042404 | 87 | 129 | 0.9 | 3.5 | 0.00 | 0.13 | 0.13 | 81 | 1010.0 |
| 20260504042104 | 87 | 129 | 0.9 | 3.5 | 0.00 | 0.13 | 0.13 | 81 | 1010.0 |
| 20260504041804 | 87 | 124 | 0.9 | 3.5 | 0.00 | 0.13 | 0.13 | 81 | 1010.0 |
| 20260504041504 | 87 | 121 | 0.9 | 2.6 | 0.00 | 0.13 | 0.13 | 81 | 1010.0 |
| 20260504041204 | 87 | 121 | 0.9 | 2.6 | 0.00 | 0.13 | 0.13 | 82 | 1010.0 |
| 20260504040904 | 87 | 126 | 0.9 | 3.5 | 0.00 | 0.13 | 0.13 | 82 | 1010.0 |
| 20260504040604 | 87 | 131 | 0.9 | 3.5 | 0.00 | 0.13 | 0.13 | 82 | 1010.0 |
| 20260504040325 | 87 | 108 | 1.7 | 3.5 | 0.00 | 0.13 | 0.13 | 82 | 1010.0 |
| 20260504040004 | 87 | 89 | 1.7 | 3.5 | 0.00 | 0.13 | 0.13 | 82 | 1010.0 |
| 20260504035725 | 87 | 106 | 1.7 | 3.5 | 0.00 | 0.13 | 0.13 | 82 | 1010.0 |
| 20260504035404 | 87 | 118 | 1.7 | 3.5 | 0.00 | 0.13 | 0.13 | 82 | 1010.0 |
| 20260504035125 | 87 | 121 | 0.9 | 3.5 | 0.00 | 0.13 | 0.13 | 82 | 1010.0 |
| 20260504034804 | 87 | 131 | 0.9 | 3.5 | 0.00 | 0.13 | 0.13 | 82 | 1010.0 |
| 20260504034504 | 87 | 323 | 0.9 | 3.5 | 0.00 | 0.13 | 0.13 | 82 | 1010.0 |
| 20260504034204 | 87 | 338 | 0.9 | 3.5 | 0.00 | 0.13 | 0.13 | 82 | 1010.0 |
| 20260504033904 | 86 | 306 | 0.9 | 3.5 | 0.00 | 0.13 | 0.13 | 82 | 1010.0 |
| 20260504033604 | 86 | 147 | 0.9 | 2.6 | 0.00 | 0.13 | 0.13 | 82 | 1010.0 |
| 20260504033304 | 86 | 168 | 0.9 | 2.6 | 0.00 | 0.13 | 0.13 | 82 | 1010.0 |
| 20260504033025 | 86 | 129 | 0.9 | 3.5 | 0.00 | 0.13 | 0.13 | 82 | 1010.0 |
| 20260504032704 | 86 | 154 | 0.9 | 3.5 | 0.00 | 0.13 | 0.13 | 82 | 1010.0 |
| 20260504032404 | 86 | 156 | 0.9 | 3.5 | 0.00 | 0.13 | 0.13 | 83 | 1010.0 |
| 20260504032104 | 86 | 168 | 0.9 | 3.5 | 0.00 | 0.13 | 0.13 | 83 | 1010.0 |
| 20260504031804 | 86 | 167 | 0.9 | 2.6 | 0.00 | 0.13 | 0.13 | 83 | 1010.0 |
| 20260504031504 | 86 | 172 | 0.9 | 2.6 | 0.00 | 0.13 | 0.13 | 83 | 1010.0 |
| 20260504031225 | 86 | 159 | 0.9 | 2.6 | 0.00 | 0.13 | 0.13 | 83 | 1010.0 |
| 20260504030905 | 86 | 174 | 0.9 | 2.6 | 0.00 | 0.13 | 0.13 | 83 | 1010.0 |
| 20260504030625 | 86 | 182 | 0.9 | 2.6 | 0.00 | 0.13 | 0.13 | 83 | 1010.0 |
| 20260504030304 | 86 | 183 | 0.9 | 2.6 | 0.00 | 0.13 | 0.13 | 83 | 1010.0 |
| 20260504030004 | 86 | 190 | 0.9 | 2.6 | 0.00 | 0.13 | 0.13 | 83 | 1010.0 |
| 20260504025704 | 86 | 181 | 0.9 | 2.6 | 0.00 | 0.13 | 0.13 | 83 | 1010.0 |
| 20260504025425 | 85 | 190 | 0.9 | 2.6 | 0.00 | 0.13 | 0.13 | 83 | 1010.0 |
| 20260504025104 | 85 | 201 | 0.9 | 2.6 | 0.00 | 0.13 | 0.13 | 83 | 1010.0 |
| 20260504024804 | 85 | 207 | 0.9 | 2.6 | 0.00 | 0.13 | 0.13 | 83 | 1010.0 |
| 20260504024504 | 86 | 221 | 0.0 | 1.7 | 0.00 | 0.13 | 0.13 | 83 | 1010.0 |
| 20260504024204 | 86 | 197 | 0.0 | 1.7 | 0.00 | 0.13 | 0.13 | 83 | 1010.0 |
| 20260504023905 | 86 | 178 | 0.0 | 1.7 | 0.00 | 0.13 | 0.13 | 83 | 1010.0 |
| 20260504023604 | 86 | 165 | 0.0 | 1.7 | 0.00 | 0.13 | 0.13 | 83 | 1010.0 |
| 20260504023304 | 85 | 151 | 0.0 | 1.7 | 0.00 | 0.13 | 0.13 | 84 | 1010.0 |
| 20260504023025 | 85 | 169 | 0.0 | 2.6 | 0.00 | 0.13 | 0.13 | 83 | 1010.0 |
| 20260504022704 | 85 | 180 | 0.9 | 2.6 | 0.00 | 0.13 | 0.13 | 83 | 1010.0 |
| 20260504022404 | 85 | 175 | 0.9 | 2.6 | 0.00 | 0.13 | 0.13 | 83 | 1010.0 |
| 20260504022104 | 85 | 154 | 0.9 | 2.6 | 0.00 | 0.13 | 0.13 | 83 | 1010.0 |
| 20260504021804 | 85 | 141 | 0.9 | 2.6 | 0.00 | 0.13 | 0.13 | 84 | 1010.0 |
| 20260504021504 | 86 | 129 | 0.0 | 2.6 | 0.00 | 0.13 | 0.13 | 83 | 1010.0 |
| 20260504021225 | 85 | 142 | 0.0 | 2.6 | 0.00 | 0.13 | 0.13 | 83 | 1010.0 |
| 20260504020904 | 85 | 143 | 0.9 | 2.6 | 0.00 | 0.13 | 0.13 | 83 | 1010.0 |
| 20260504020604 | 85 | 134 | 0.0 | 2.6 | 0.00 | 0.13 | 0.13 | 83 | 1010.0 |
| 20260504020304 | 85 | 131 | 0.0 | 2.6 | 0.00 | 0.13 | 0.13 | 83 | 1010.0 |
| 20260504020025 | 85 | 92 | 0.0 | 1.7 | 0.00 | 0.13 | 0.13 | 83 | 1010.0 |
| 20260504015725 | 85 | 98 | 0.0 | 0.9 | 0.00 | 0.13 | 0.13 | 83 | 1010.0 |
| 20260504015404 | 85 | 99 | 0.0 | 1.7 | 0.00 | 0.13 | 0.13 | 82 | 1010.0 |
| 20260504015104 | 85 | 107 | 0.0 | 1.7 | 0.00 | 0.13 | 0.13 | 82 | 1010.0 |
| 20260504014804 | 85 | 103 | 0.0 | 1.7 | 0.00 | 0.13 | 0.13 | 82 | 1010.0 |
| 20260504014525 | 85 | 103 | 0.0 | 1.7 | 0.00 | 0.13 | 0.13 | 82 | 1010.0 |
| 20260504014204 | 85 | 125 | 0.0 | 2.6 | 0.00 | 0.13 | 0.13 | 82 | 1010.0 |
| 20260504013925 | 85 | 160 | 0.9 | 2.6 | 0.00 | 0.13 | 0.13 | 82 | 1010.0 |
| 20260504013604 | 85 | 167 | 0.9 | 2.6 | 0.00 | 0.13 | 0.13 | 83 | 1010.0 |
| 20260504013304 | 85 | 173 | 0.9 | 1.7 | 0.00 | 0.13 | 0.13 | 83 | 1010.0 |
| 20260504013004 | 85 | 140 | 0.0 | 1.7 | 0.00 | 0.13 | 0.13 | 83 | 1010.0 |
| 20260504012704 | 86 | 129 | 0.0 | 1.7 | 0.00 | 0.13 | 0.13 | 82 | 1010.0 |
| 20260504012404 | 85 | 139 | 0.0 | 2.6 | 0.00 | 0.13 | 0.13 | 82 | 1010.0 |
| 20260504012104 | 85 | 150 | 0.9 | 2.6 | 0.00 | 0.13 | 0.13 | 82 | 1010.0 |
| 20260504011804 | 86 | 151 | 0.9 | 3.5 | 0.00 | 0.13 | 0.13 | 81 | 1010.0 |
| 20260504011504 | 86 | 164 | 0.9 | 3.5 | 0.00 | 0.13 | 0.13 | 81 | 1010.0 |
| 20260504011204 | 86 | 171 | 0.9 | 3.5 | 0.00 | 0.13 | 0.13 | 81 | 1010.0 |
| 20260504010904 | 86 | 158 | 0.9 | 3.5 | 0.00 | 0.13 | 0.13 | 81 | 1010.0 |
| 20260504010604 | 86 | 149 | 0.9 | 3.5 | 0.00 | 0.13 | 0.13 | 81 | 1010.0 |
| 20260504010304 | 86 | 133 | 0.9 | 3.5 | 0.00 | 0.13 | 0.13 | 81 | 1010.0 |
| 20260504010004 | 86 | 125 | 0.9 | 3.5 | 0.00 | 0.13 | 0.13 | 81 | 1010.0 |
| 20260504005704 | 86 | 124 | 0.9 | 3.5 | 0.00 | 0.13 | 0.13 | 81 | 1010.0 |
| 20260504005404 | 86 | 103 | 0.9 | 2.6 | 0.00 | 0.13 | 0.13 | 82 | 1010.0 |
| 20260504005104 | 86 | 99 | 0.9 | 2.6 | 0.00 | 0.13 | 0.13 | 81 | 1010.0 |
| 20260504004804 | 86 | 107 | 0.9 | 2.6 | 0.00 | 0.13 | 0.13 | 81 | 1010.0 |
| 20260504004504 | 86 | 104 | 0.9 | 2.6 | 0.00 | 0.13 | 0.13 | 81 | 1010.0 |
| 20260504004225 | 86 | 105 | 0.9 | 2.6 | 0.00 | 0.13 | 0.13 | 81 | 1010.0 |
| 20260504003904 | 86 | 73 | 0.0 | 1.7 | 0.00 | 0.13 | 0.13 | 81 | 1010.0 |
| 20260504003604 | 86 | 82 | 0.0 | 1.7 | 0.00 | 0.13 | 0.13 | 81 | 1010.0 |
| 20260504003304 | 86 | 69 | 0.0 | 1.7 | 0.00 | 0.13 | 0.13 | 81 | 1010.0 |
| 20260504003004 | 86 | 88 | 0.0 | 1.7 | 0.00 | 0.13 | 0.13 | 81 | 1010.0 |
| 20260504002704 | 86 | 92 | 0.0 | 1.7 | 0.00 | 0.13 | 0.13 | 81 | 1010.0 |
| 20260504002404 | 86 | 84 | 0.0 | 2.6 | 0.00 | 0.13 | 0.13 | 81 | 1010.0 |
| 20260504002125 | 86 | 85 | 0.0 | 2.6 | 0.00 | 0.13 | 0.13 | 81 | 1010.0 |
| 20260504001804 | 86 | 76 | 0.9 | 2.6 | 0.00 | 0.13 | 0.13 | 81 | 1010.0 |
| 20260504001504 | 86 | 80 | 0.9 | 2.6 | 0.00 | 0.13 | 0.13 | 81 | 1010.0 |
| 20260504001225 | 86 | 83 | 0.9 | 1.7 | 0.00 | 0.13 | 0.13 | 81 | 1010.0 |
| 20260504000925 | 86 | 72 | 0.0 | 1.7 | 0.00 | 0.13 | 0.13 | 81 | 1010.0 |
| 20260504000604 | 86 | 67 | 0.0 | 1.7 | 0.00 | 0.13 | 0.13 | 81 | 1010.0 |
| 20260504000304 | 86 | 68 | 0.0 | 1.7 | 0.00 | 0.13 | 0.13 | 81 | 1010.0 |
| 20260504000004 | 86 | 69 | 0.0 | 1.7 | 0.00 | 0.13 | 0.13 | 81 | 1010.0 |
| 20260503235704 | 86 | 85 | 0.0 | 2.6 | 0.00 | 0.13 | 0.13 | 81 | 1010.0 |
| 20260503235425 | 86 | 92 | 0.9 | 2.6 | 0.00 | 0.13 | 0.13 | 81 | 1010.0 |
| 20260503235104 | 86 | 93 | 0.9 | 2.6 | 0.00 | 0.13 | 0.13 | 81 | 1010.0 |
| 20260503234804 | 86 | 100 | 0.9 | 3.5 | 0.00 | 0.13 | 0.13 | 81 | 1010.0 |
| 20260503234504 | 86 | 105 | 0.9 | 3.5 | 0.00 | 0.13 | 0.13 | 81 | 1010.0 |
| 20260503234205 | 86 | 105 | 0.9 | 3.5 | 0.00 | 0.13 | 0.13 | 81 | 1010.0 |
| 20260503233904 | 86 | 108 | 0.9 | 3.5 | 0.00 | 0.13 | 0.13 | 81 | 1010.0 |
| 20260503233604 | 86 | 86 | 0.0 | 2.6 | 0.00 | 0.13 | 0.13 | 81 | 1010.0 |
| 20260503233304 | 86 | 77 | 0.0 | 1.7 | 0.00 | 0.13 | 0.13 | 81 | 1010.0 |
| 20260503233004 | 86 | 68 | 0.0 | 1.7 | 0.00 | 0.13 | 0.13 | 81 | 1010.0 |
| 20260503232704 | 86 | 72 | 0.0 | 1.7 | 0.00 | 0.13 | 0.13 | 81 | 1010.0 |
| 20260503232404 | 86 | 76 | 0.0 | 1.7 | 0.00 | 0.13 | 0.13 | 81 | 1010.0 |
| 20260503232125 | 86 | 92 | 0.9 | 2.6 | 0.00 | 0.13 | 0.13 | 81 | 1010.0 |
| 20260503231825 | 86 | 105 | 0.9 | 2.6 | 0.00 | 0.13 | 0.13 | 81 | 1010.0 |
| 20260503231504 | 86 | 103 | 0.9 | 2.6 | 0.00 | 0.13 | 0.13 | 80 | 1010.0 |
| 20260503231225 | 86 | 102 | 0.9 | 2.6 | 0.00 | 0.13 | 0.13 | 81 | 1010.0 |
| 20260503230904 | 86 | 89 | 0.9 | 3.5 | 0.00 | 0.13 | 0.13 | 81 | 1010.0 |
| 20260503230604 | 86 | 81 | 0.9 | 3.5 | 0.00 | 0.13 | 0.13 | 81 | 1010.0 |
| 20260503230304 | 86 | 93 | 0.9 | 3.5 | 0.00 | 0.13 | 0.13 | 81 | 1010.0 |
| 20260503230004 | 86 | 108 | 0.9 | 3.5 | 0.00 | 0.13 | 0.13 | 81 | 1010.0 |
| 20260503225725 | 86 | 129 | 0.9 | 3.5 | 0.00 | 0.13 | 0.13 | 81 | 1010.0 |
| 20260503225404 | 86 | 108 | 0.9 | 3.5 | 0.00 | 0.13 | 0.13 | 80 | 1010.0 |
| 20260503225104 | 86 | 111 | 0.0 | 2.6 | 0.00 | 0.13 | 0.13 | 81 | 1010.0 |
| 20260503224804 | 86 | 123 | 0.0 | 1.7 | 0.00 | 0.13 | 0.13 | 80 | 1010.0 |
| 20260503224504 | 86 | 120 | 0.0 | 2.6 | 0.00 | 0.13 | 0.13 | 80 | 1010.0 |
| 20260503224204 | 86 | 134 | 0.9 | 2.6 | 0.00 | 0.13 | 0.13 | 80 | 1010.0 |
| 20260503223904 | 86 | 129 | 0.9 | 2.6 | 0.00 | 0.13 | 0.13 | 80 | 1010.0 |
| 20260503223604 | 86 | 126 | 0.9 | 2.6 | 0.00 | 0.13 | 0.13 | 80 | 1010.0 |
| 20260503223304 | 86 | 122 | 0.9 | 1.7 | 0.00 | 0.13 | 0.13 | 80 | 1010.0 |
| 20260503223004 | 86 | 89 | 0.9 | 1.7 | 0.00 | 0.13 | 0.13 | 80 | 1010.0 |
| 20260503222725 | 86 | 110 | 0.0 | 1.7 | 0.00 | 0.13 | 0.13 | 80 | 1010.0 |
| 20260503222404 | 86 | 97 | 0.9 | 1.7 | 0.00 | 0.13 | 0.13 | 80 | 1010.0 |
| 20260503222104 | 86 | 132 | 0.0 | 2.6 | 0.00 | 0.13 | 0.13 | 80 | 1010.0 |
| 20260503221804 | 86 | 136 | 0.9 | 2.6 | 0.00 | 0.13 | 0.13 | 80 | 1010.0 |
| 20260503221504 | 86 | 145 | 0.9 | 2.6 | 0.00 | 0.13 | 0.13 | 80 | 1010.0 |
| 20260503221204 | 86 | 131 | 0.9 | 2.6 | 0.00 | 0.13 | 0.13 | 80 | 1010.0 |
| 20260503220904 | 86 | 99 | 0.9 | 2.6 | 0.00 | 0.13 | 0.13 | 80 | 1010.0 |
| 20260503220625 | 86 | 73 | 0.9 | 2.6 | 0.00 | 0.13 | 0.13 | 80 | 1010.0 |
| 20260503220304 | 86 | 83 | 0.9 | 2.6 | 0.00 | 0.13 | 0.13 | 80 | 1010.0 |
| 20260503220004 | 86 | 114 | 0.9 | 2.6 | 0.00 | 0.13 | 0.13 | 80 | 1010.0 |
| 20260503215704 | 86 | 132 | 0.9 | 2.6 | 0.00 | 0.13 | 0.13 | 80 | 1010.0 |
| 20260503215404 | 86 | 127 | 0.9 | 2.6 | 0.00 | 0.13 | 0.13 | 80 | 1010.0 |
| 20260503215104 | 86 | 152 | 0.9 | 2.6 | 0.00 | 0.13 | 0.13 | 80 | 1010.0 |
| 20260503214804 | 86 | 148 | 0.9 | 2.6 | 0.00 | 0.13 | 0.13 | 80 | 1010.0 |
| 20260503214504 | 86 | 156 | 0.9 | 1.7 | 0.01 | 0.13 | 0.13 | 80 | 1010.0 |
| 20260503214204 | 86 | 155 | 0.9 | 2.6 | 0.04 | 0.13 | 0.13 | 80 | 1010.0 |
| 20260503213925 | 86 | 146 | 0.9 | 2.6 | 0.05 | 0.13 | 0.13 | 80 | 1010.0 |
| 20260503213604 | 86 | 150 | 0.9 | 2.6 | 0.06 | 0.13 | 0.13 | 80 | 1010.0 |
| 20260503213304 | 87 | 134 | 0.9 | 2.6 | 0.06 | 0.13 | 0.13 | 80 | 1010.0 |
| 20260503213004 | 87 | 144 | 0.9 | 1.7 | 0.06 | 0.13 | 0.13 | 80 | 1010.0 |
| 20260503212704 | 87 | 141 | 0.9 | 1.7 | 0.06 | 0.13 | 0.13 | 80 | 1010.0 |
| 20260503212404 | 86 | 125 | 0.0 | 1.7 | 0.06 | 0.13 | 0.13 | 80 | 1010.0 |
| 20260503212104 | 87 | 108 | 0.0 | 1.7 | 0.06 | 0.13 | 0.13 | 80 | 1010.0 |
| 20260503211804 | 87 | 112 | 0.0 | 1.7 | 0.06 | 0.13 | 0.13 | 80 | 1010.0 |
| 20260503211504 | 87 | 126 | 0.9 | 1.7 | 0.06 | 0.13 | 0.13 | 80 | 1010.0 |
| 20260503211225 | 87 | 130 | 0.0 | 1.7 | 0.06 | 0.13 | 0.13 | 80 | 1010.0 |
| 20260503210904 | 87 | 120 | 0.0 | 1.7 | 0.06 | 0.13 | 0.13 | 79 | 1010.0 |
| 20260503210604 | 87 | 100 | 0.0 | 2.6 | 0.06 | 0.13 | 0.13 | 79 | 1010.0 |
| 20260503210304 | 87 | 107 | 0.9 | 2.6 | 0.06 | 0.13 | 0.13 | 79 | 1010.0 |
| 20260503210004 | 87 | 120 | 0.9 | 2.6 | 0.06 | 0.13 | 0.13 | 79 | 1010.0 |
| 20260503205704 | 87 | 125 | 0.9 | 3.5 | 0.06 | 0.13 | 0.13 | 79 | 1010.0 |
| 20260503205404 | 87 | 123 | 1.7 | 3.5 | 0.06 | 0.13 | 0.13 | 79 | 1010.0 |
| 20260503205104 | 86 | 110 | 1.7 | 3.5 | 0.06 | 0.13 | 0.13 | 79 | 1010.0 |
| 20260503204804 | 87 | 106 | 1.7 | 3.5 | 0.05 | 0.12 | 0.12 | 80 | 1010.0 |
| 20260503204504 | 87 | 112 | 0.9 | 3.5 | 0.05 | 0.12 | 0.12 | 80 | 1010.0 |
| 20260503204204 | 87 | 117 | 1.7 | 3.5 | 0.02 | 0.09 | 0.09 | 80 | 1010.0 |
| 20260503203904 | 87 | 132 | 1.7 | 3.5 | 0.00 | 0.07 | 0.07 | 80 | 1010.0 |
| 20260503203604 | 87 | 120 | 0.9 | 3.5 | 0.00 | 0.07 | 0.07 | 80 | 1010.0 |
| 20260503203304 | 87 | 124 | 0.9 | 3.5 | 0.00 | 0.07 | 0.07 | 80 | 1010.0 |
| 20260503203025 | 87 | 128 | 0.9 | 2.6 | 0.00 | 0.07 | 0.07 | 80 | 1010.0 |
| 20260503202704 | 87 | 87 | 0.9 | 3.5 | 0.00 | 0.07 | 0.07 | 80 | 1010.0 |
| 20260503202404 | 87 | 50 | 0.9 | 3.5 | 0.00 | 0.07 | 0.07 | 80 | 1010.0 |
| 20260503202125 | 87 | 41 | 0.9 | 3.5 | 0.00 | 0.07 | 0.07 | 80 | 1010.0 |
| 20260503201804 | 87 | 31 | 0.9 | 3.5 | 0.00 | 0.07 | 0.07 | 80 | 1010.0 |
| 20260503201504 | 87 | 143 | 0.9 | 2.6 | 0.00 | 0.07 | 0.07 | 80 | 1010.0 |
| 20260503201204 | 87 | 158 | 0.9 | 2.6 | 0.00 | 0.07 | 0.07 | 80 | 1010.0 |
| 20260503200904 | 87 | 157 | 0.9 | 2.6 | 0.00 | 0.07 | 0.07 | 80 | 1010.0 |
| 20260503200604 | 87 | 144 | 0.9 | 2.6 | 0.00 | 0.07 | 0.07 | 80 | 1010.0 |
| 20260503200304 | 87 | 149 | 0.9 | 2.6 | 0.00 | 0.07 | 0.07 | 80 | 1010.0 |
| 20260503200025 | 87 | 173 | 0.9 | 2.6 | 0.00 | 0.07 | 0.07 | 80 | 1010.0 |
| 20260503195704 | 87 | 161 | 0.9 | 2.6 | 0.00 | 0.07 | 0.07 | 80 | 1010.0 |
| 20260503195404 | 87 | 114 | 0.9 | 2.6 | 0.00 | 0.07 | 0.07 | 80 | 1010.0 |
| 20260503195105 | 87 | 89 | 0.9 | 2.6 | 0.00 | 0.07 | 0.07 | 80 | 1010.0 |
| 20260503194804 | 87 | 47 | 0.9 | 3.5 | 0.00 | 0.07 | 0.07 | 80 | 1010.0 |
| 20260503194504 | 87 | 33 | 0.9 | 3.5 | 0.00 | 0.07 | 0.07 | 80 | 1010.0 |
| 20260503194225 | 87 | 26 | 1.7 | 3.5 | 0.00 | 0.07 | 0.07 | 80 | 1010.0 |
| 20260503193904 | 87 | 95 | 0.9 | 3.5 | 0.00 | 0.07 | 0.07 | 80 | 1010.0 |
| 20260503193604 | 87 | 158 | 0.9 | 2.6 | 0.00 | 0.07 | 0.07 | 80 | 1010.0 |
| 20260503193304 | 87 | 123 | 0.9 | 2.6 | 0.00 | 0.07 | 0.07 | 80 | 1010.0 |
| 20260503193004 | 87 | 139 | 0.9 | 2.6 | 0.07 | 0.07 | 0.07 | 80 | 1010.0 |
| 20260503192704 | 87 | 123 | 0.9 | 2.6 | 0.07 | 0.07 | 0.07 | 80 | 1010.0 |
| 20260503192425 | 87 | 144 | 0.9 | 3.5 | 0.07 | 0.07 | 0.07 | 80 | 1010.0 |
| 20260503192104 | 87 | 131 | 0.9 | 3.5 | 0.07 | 0.07 | 0.07 | 80 | 1010.0 |
| 20260503191804 | 87 | 155 | 0.9 | 3.5 | 0.07 | 0.07 | 0.07 | 80 | 1010.0 |
| 20260503191504 | 87 | 165 | 0.9 | 3.5 | 0.07 | 0.07 | 0.07 | 80 | 1010.0 |
| 20260503191204 | 87 | 146 | 0.9 | 3.5 | 0.07 | 0.07 | 0.07 | 80 | 1010.0 |
| 20260503190904 | 87 | 131 | 0.9 | 3.5 | 0.07 | 0.07 | 0.07 | 80 | 1010.0 |
| 20260503190604 | 87 | 78 | 0.9 | 4.3 | 0.07 | 0.07 | 0.07 | 80 | 1010.0 |
| 20260503190304 | 87 | 48 | 1.7 | 4.3 | 0.07 | 0.07 | 0.07 | 80 | 1010.0 |
| 20260503190004 | 87 | 47 | 1.7 | 4.3 | 0.07 | 0.07 | 0.07 | 80 | 1010.0 |
| 20260503185704 | 87 | 61 | 0.9 | 4.3 | 0.07 | 0.07 | 0.07 | 80 | 1010.0 |
| 20260503185404 | 87 | 114 | 0.9 | 2.6 | 0.07 | 0.07 | 0.07 | 80 | 1010.0 |
| 20260503185104 | 87 | 121 | 0.0 | 2.6 | 0.07 | 0.07 | 0.07 | 80 | 1010.0 |
| 20260503184804 | 87 | 118 | 0.0 | 1.7 | 0.07 | 0.07 | 0.07 | 80 | 1010.0 |
| 20260503184525 | 87 | 113 | 0.0 | 1.7 | 0.07 | 0.07 | 0.07 | 80 | 1010.0 |
| 20260503184204 | 87 | 107 | 0.0 | 1.7 | 0.07 | 0.07 | 0.07 | 80 | 1010.0 |
| 20260503183904 | 87 | 98 | 0.0 | 1.7 | 0.07 | 0.07 | 0.07 | 80 | 1010.0 |
| 20260503183625 | 87 | 104 | 0.0 | 1.7 | 0.07 | 0.07 | 0.07 | 80 | 1010.0 |
| 20260503183304 | 87 | 112 | 0.0 | 1.7 | 0.07 | 0.07 | 0.07 | 80 | 1010.0 |
| 20260503183004 | 87 | 115 | 0.0 | 1.7 | 0.00 | 0.00 | 0.00 | 80 | 1010.0 |
| 20260503182704 | 87 | 110 | 0.0 | 1.7 | 0.00 | 0.00 | 0.17 | 80 | 1010.0 |
| 20260503182425 | 87 | 109 | 0.0 | 1.7 | 0.00 | 0.00 | 0.17 | 80 | 1010.0 |
| 20260503182104 | 87 | 104 | 0.0 | 1.7 | 0.00 | 0.00 | 0.17 | 80 | 1010.0 |
| 20260503181826 | 87 | 107 | 0.0 | 1.7 | 0.00 | 0.00 | 0.17 | 80 | 1010.0 |
| 20260503181505 | 87 | 101 | 0.0 | 1.7 | 0.00 | 0.00 | 0.17 | 80 | 1010.0 |
| 20260503181204 | 87 | 104 | 0.0 | 0.9 | 0.00 | 0.00 | 0.17 | 80 | 1010.0 |
| 20260503180904 | 87 | 107 | 0.0 | 0.9 | 0.00 | 0.00 | 0.17 | 80 | 1010.0 |
| 20260503180604 | 87 | 105 | 0.0 | 0.9 | 0.00 | 0.00 | 0.17 | 80 | 1010.0 |
| 20260503180304 | 87 | 90 | 0.0 | 0.9 | 0.00 | 0.00 | 0.17 | 80 | 1010.0 |
| 20260503180004 | 88 | 78 | 0.0 | 0.9 | 0.00 | 0.00 | 0.17 | 80 | 1010.0 |
| 20260503175704 | 88 | 91 | 0.0 | 0.9 | 0.00 | 0.00 | 0.17 | 80 | 1010.0 |
| 20260503175404 | 88 | 100 | 0.0 | 0.9 | 0.00 | 0.00 | 0.17 | 80 | 1010.0 |
| 20260503175104 | 88 | 101 | 0.0 | 0.9 | 0.00 | 0.00 | 0.17 | 80 | 1010.0 |
| 20260503174804 | 88 | 110 | 0.0 | 0.9 | 0.00 | 0.00 | 0.17 | 80 | 1010.0 |
| 20260503174525 | 88 | 109 | 0.0 | 0.9 | 0.00 | 0.10 | 0.17 | 80 | 1010.0 |
| 20260503174204 | 88 | 111 | 0.0 | 0.9 | 0.00 | 0.10 | 0.17 | 80 | 1010.0 |
| 20260503173904 | 88 | 94 | 0.0 | 0.9 | 0.00 | 0.10 | 0.17 | 80 | 1010.0 |
| 20260503173604 | 88 | 81 | 0.0 | 0.9 | 0.00 | 0.10 | 0.17 | 80 | 1010.0 |
| 20260503173304 | 88 | 66 | 0.0 | 0.9 | 0.00 | 0.10 | 0.17 | 80 | 1010.0 |
| 20260503173004 | 88 | 80 | 0.0 | 0.9 | 0.00 | 0.10 | 0.17 | 80 | 1010.0 |
| 20260503172704 | 88 | 85 | 0.0 | 1.7 | 0.00 | 0.10 | 0.17 | 80 | 1010.0 |
| 20260503172404 | 88 | 102 | 0.0 | 1.7 | 0.00 | 0.11 | 0.17 | 80 | 1010.0 |
| 20260503172104 | 88 | 79 | 0.0 | 1.7 | 0.00 | 0.11 | 0.17 | 81 | 1010.0 |
| 20260503171804 | 88 | 72 | 0.0 | 2.6 | 0.00 | 0.11 | 0.17 | 81 | 1010.0 |
| 20260503171504 | 88 | 73 | 0.0 | 2.6 | 0.00 | 0.11 | 0.17 | 81 | 1010.0 |
| 20260503171225 | 88 | 73 | 0.0 | 2.6 | 0.00 | 0.11 | 0.17 | 81 | 1010.0 |
| 20260503170904 | 88 | 81 | 0.0 | 2.6 | 0.00 | 0.11 | 0.17 | 80 | 1010.0 |
| 20260503170604 | 88 | 100 | 0.0 | 0.9 | 0.00 | 0.11 | 0.17 | 80 | 1010.0 |
| 20260503170304 | 88 | 0 | 0.0 | 0.0 | 0.00 | 0.11 | 0.17 | 80 | 1010.0 |
| 20260503150904 | 88 | 91 | 0.0 | 1.7 | 0.00 | 0.17 | 0.17 | 80 | 1010.0 |
| 20260503150604 | 88 | 82 | 0.0 | 1.7 | 0.00 | 0.17 | 0.17 | 80 | 1010.0 |
| 20260503150304 | 88 | 73 | 0.0 | 0.9 | 0.00 | 0.17 | 0.17 | 79 | 1010.0 |